Regional Weather Roundup
Issued by NWS Sioux Falls, SD

Home | Current Version | Previous Version | Text Only | Print | Product List | Glossary Off
Versions: 1 2 3 4 5 6 7 8 9 10 11 12 13 14 15 16 17 18 19 20 21 22 23 24 25 26 27 28 29 30 31 32 33 34 35 36 37 38 39 40 41 42 43 44 45 46 47 48 49 50

303
ASUS43 KFSD 280102
RWRFSD

WEATHER ROUNDUP FOR SE SOUTH DAKOTA/SW MINNESOTA/NW IOWA
NATIONAL WEATHER SERVICE SIOUX FALLS SD
800 PM CDT MON MAR 27 2017

NOTE: "FAIR" INDICATES FEW OR NO CLOUDS BELOW 12,000 FEET WITH NO
SIGNIFICANT WEATHER AND OR OBSTRUCTIONS TO VISIBILITY.


SDZ038>040-050-052>070-280200-
SOUTHEAST SOUTH DAKOTA

CITY           SKY/WX    TMP DP  RH WIND       PRES   REMARKS
BROOKINGS      CLOUDY    53  37  54 E7        29.95R
CHAMBERLAIN    PTCLDY    55  34  45 E5        29.91R
HURON          PTCLDY    54  36  50 E5        29.93R
MADISON        FAIR      52  36  54 SE5       29.94S
MITCHELL       CLEAR     53  34  48 SE6       29.94R
SIOUX FALLS    MOCLDY    52  39  61 SE12      29.95R
WINNER         CLOUDY    57  37  47 E10       29.88R
YANKTON        CLEAR     54  39  58 E8        29.94R
$$

MNZ071-072-080-081-089-090-097-098-280200-
SOUTHWEST MINNESOTA

CITY           SKY/WX    TMP DP  RH WIND       PRES   REMARKS
FAIRMONT       MOCLDY    48  40  73 SE3       29.98R
JACKSON        CLEAR     48  37  66 CALM      29.98R
LUVERNE        CLEAR     46  37  71 S5        29.97S
MARSHALL       CLEAR     53  38  56 N3        29.97R
MONTEVIDEO     CLEAR     50  34  53 CALM      29.99R
PIPESTONE      CLEAR     52  36  54 SE5       29.96R
REDWOOD FALLS  CLEAR     54  33  45 E3        29.97R
TRACY          CLEAR     51  40  65 CALM      29.97R
WINDOM         CLEAR     48  39  71 CALM      29.97S
WORTHINGTON    CLEAR     49  39  68 SE5       29.98R
$$

IAZ001>003-012>014-020>022-031-032-NEZ013-014-SDZ071-280200-
NORTHWEST IOWA

CITY           SKY/WX    TMP DP  RH WIND       PRES   REMARKS
CHEROKEE       CLOUDY    47  40  75 CALM      29.99R
DENISON        CLOUDY    46  39  76 VRB3      29.99S
ESTHERVILLE    CLEAR     45  42  89 E3        29.97R
LE MARS        CLEAR     48  39  71 E7        29.99R
ORANGE CITY    CLEAR     45  41  87 CALM      29.98R
SHELDON        CLEAR     45  39  81 SE6       29.97R
SIOUX CITY     CLEAR     50  40  68 E9        29.96R
SPENCER        CLOUDY    48  39  71 CALM      29.98R
STORM LAKE     CLOUDY    46  41  81 N3        29.98R
$$

ABBREVIATIONS USED IN REMARKS
   TC - TEMPERATURE IN CELSIUS
  WCI - WIND CHILL INDEX
   HX - HEAT INDEX
  VSB - VISIBILITY





USA.gov is the U.S. government's official web portal to all federal, state and local government web resources and services.